Other Public Products
Issued by NWS Grand Forks, ND

Home | Current Version | Previous Version | Graphics & Text | Print | Product List | Glossary On
Versions: 1 2 3 4 5 6 7 8 9 10 11 12 13 14 15 16 17 18 19 20 21 22 23 24 25 26 27 28 29 30 31 32 33 34 35 36 37 38 39 40 41 42 43 44 45 46 47 48 49 50
178
FPUS83 KFGF 201531
OPUFGF
PRAIRIE TO PINES WEATHER ROUNDUP
NATIONAL WEATHER SERVICE EASTERN NORTH DAKOTA/GRAND FORKS ND
900 AM CST MON FEB 20 2017

 **SATELLITE DATA USED TO AUGMENT SKY COVER AT AUTOMATED STATIONS**
 *****  WEATHER ACROSS EASTERN NORTH DAKOTA  *****

CITY           SKY/WX    TMP DP  RH WIND       PRES   REMARKS
GRAND FORKS    LGT RAIN  40  36  86 S5        29.60F VSB 1/4
GRAND FORKS AF CLOUDY    39  39 100 S8        29.61R FOG
GRAND CITY NWS NOT AVBL
BUXTON         NOT AVBL
DEVILS LAKE    CLOUDY    33  33 100 W13       29.62F FOG     WCI  24
FARGO          RAIN      50  49  96 S10       29.62R FOG
WAHPETON ARPT  CLOUDY    46  45  93 SE8       29.66S
$$

 *****  WEATHER ACROSS CENTRAL AND WESTERN NORTH DAKOTA  *****

CITY           SKY/WX    TMP DP  RH WIND       PRES   REMARKS
JAMESTOWN      CLOUDY    36  33  89 W8        29.65R
BISMARCK       CLOUDY    37  35  92 W8        29.72R FOG
MINOT          CLOUDY    35  33  92 W8        29.68F FOG
MINOT AFB      CLOUDY    32  32 100 W8        29.69R FOG     WCI  25
GARRISON         N/A     34  32  92 NW8       29.70R
WILLISTON      FAIR      36  32  85 S7        29.74R
DICKINSON      FAIR      36  33  89 W10       29.71R
HETTINGER      FAIR      39  34  82 NW6       29.75R
$$

 *****  OTHER OBSERVATIONS NORTHEAST NORTH DAKOTA  *****

CITY           SKY/WX    TMP DP  RH WIND       PRES   REMARKS
WALHALLA       NOT AVBL
LANGDON        NOT AVBL
CAVALIER       PTSUNNY   37  37 100 N7        29.60F FOG
GRAFTON        FOG       34  34 100 E3        29.61F VSB<1/4
CANDO          NOT AVBL
FORT TOTTEN      N/A     33  33 100 NW6       29.95S
ROLLA          LGT RAIN  32  32 100 NW12      29.62R WCI  23
RUGBY          LGT RAIN  32  32 100 NW15      29.65S WCI  22
 ***** THE ABOVE OBSERVATIONS ARE NON NWS ARE NOT QUALITY
        CONTROLLED AND MAY MIS-REPORT RAIN FOR SNOW...
$$

 *****  OTHER OBSERVATIONS SOUTHEAST NORTH DAKOTA *****

CITY           SKY/WX    TMP DP  RH WIND       PRES   REMARKS
COOPERSTOWN    CLOUDY    36  34  93 CALM      29.63R FOG
VALLEY CITY    CLOUDY    39  39 100 CALM      29.63F FOG
OAKES          NOT AVBL
GWINNER        PTSUNNY   50  50 100 S16       29.59F
SHEYENNE NWR     N/A     47  47  99 E5        29.95S
BUFFALO        NOT AVBL
WYNDMERE         N/A     46  46 100 SE5         N/A
 ***** THE ABOVE OBSERVATIONS ARE NON NWS ARE NOT QUALITY
       CONTROLLED AND MAY MIS-REPORT RAIN FOR SNOW...
$$

  *****  WEATHER ACROSS NORTHERN MINNESOTA  *****

CITY           SKY/WX    TMP DP  RH WIND       PRES   REMARKS
FLAG ISLAND    RAIN      37  36  93 S13       29.68R
WARROAD        DRIZZLE   41  37  87 SE10      29.67S
ROSEAU         RAIN      39  36  87 SE9       29.65R
HALLOCK        DRZL/FOG  36  36 100 CALM      29.61R VSB 1/4
THF RVR FALLS  RAIN      43  43 100 S9        29.65S FOG
HALSTAD          N/A     47  46  97 S12         N/A
FOSSTON        LGT RAIN  45  43  93 SE8       29.65F
BAUDETTE       LGT RAIN  40  38  93 S6        29.70R
WASKISH        CLOUDY    45  39  81 SE9G17    29.68F
CROOKSTON      DRIZZLE   45  45 100 S12       29.64R
$$
  *****  WEATHER ACROSS CENTRAL AND WEST MINNESOTA  *****

CITY           SKY/WX    TMP DP  RH WIND       PRES   REMARKS
BEMIDJI        CLOUDY    40  37  92 SE6       29.69S
PARK RAPIDS    CLOUDY    45  41  86 SE7       29.69F
WADENA         CLOUDY    45  45 100 SE3       29.69R FOG
DETROIT LAKES  RAIN      43  41  93 SE9       29.68S VSB 1/4
MOORHEAD       RAIN      48  48 100 S9        29.66R
FERGUS FALLS   CLOUDY    48  48 100 S10       29.71S
ELBOW LAKE     RAIN      49  49  99 S12       29.67F
MORRIS MN      LGT RAIN  48  48 100 SE10      29.66F
STAPLES        PTSUNNY   46  45  93 S8        29.70S
WHEATON        RAIN      52  48  87 SE10      29.66F
$$
  *****  WEATHER ELSEWHERE ACROSS MINNESOTA  *****

CITY           SKY/WX    TMP DP  RH WIND       PRES   REMARKS
DULUTH         FAIR      41  35  79 SE13      29.86S
INTRNTL FALLS  CLOUDY    43  35  73 SE9       29.75F
ELY            PTSUNNY   41  34  75 SE12      29.84S
CLOQUET        PTSUNNY   39  34  81 SE7       29.84F
BRAINERD       CLOUDY    48  43  82 SE9       29.74F
HIBBING        CLOUDY    40  36  86 SE10      29.81F
ALEXANDRIA     CLOUDY    51  50  96 S13       29.68F FOG
SAINT CLOUD    PTSUNNY   49  45  86 SE8       29.75F
MINNEAPOLIS    CLOUDY    50  43  77 E8        29.80F
$$

  *****  WEATHER ACROSS SOUTH DAKOTA  *****

CITY           SKY/WX    TMP DP  RH WIND       PRES   REMARKS
SIOUX FALLS    CLOUDY    55  55 100 S12       29.68F FOG
BROOKINGS      CLOUDY    52  51  97 S13       29.66F FOG
WATERTOWN      FOG       49  49 100 SE9       29.60F VSB 1/4
HURON          CLOUDY    53  52  96 S12       29.59F
SISSETON         N/A     54  52  93 SW9       29.63F
ABERDEEN       FAIR      50  48  93 S7        29.59F FOG
MITCHELL       FAIR      52  51  97 SE10      29.63R FOG
PIERRE         CLOUDY    43  39  86 NW24G32   29.68R
MOBRIDGE       RAIN      39  35  86 N9        29.67R FOG
RAPID CITY     FAIR      43  38  82 NW3       29.79R
$$

  *****  SOME WEATHER IN NEARBY STATES *****

CITY           SKY/WX    TMP DP  RH WIND       PRES   REMARKS
GLASGOW MT     FAIR      33  30  88 W7        29.74R
GREAT FALLS MT FAIR      31  20  63 S9        29.70S WCI  23
CHEYENNE WY    FAIR      39  18  42 NW20G26   29.96R
SCOTTSBLUFF NE FAIR      38  22  52 NW9       29.91R
OMAHA NE       LGT RAIN  58  55  90 S12       29.75S FOG
DES MOINES IA  CLOUDY    60  55  83 S10       29.83F
DAVENPORT IA   PTSUNNY   53  50  89 SE22      29.99F FOG
CHICAGO IL     PTSUNNY   52  47  83 S12       30.12F HAZE
EAU CLAIRE WI  FAIR      46  39  76 E8        29.90S
LA CROSSE WI   FAIR      54  46  74 SE14      29.93S
$$

  *****  SOME NATIONAL WEATHER *****

CITY           SKY/WX    TMP DP  RH WIND       PRES   REMARKS
LA GUARDIA NY  FAIR      48  32  53 NW10      30.19R
RALEIGH NC     FAIR      61  40  45 NE8       30.23S
ATLANTA GA     PTSUNNY   61  46  57 SE8       30.22R
NEW ORLEANS LA PTSUNNY   72  68  87 SE10      30.07R
OKLAHOMA CITY  CLOUDY    55  53  93 SE9       29.86R
ALBUQUERQUE NM FAIR      45  33  63 N5        30.19R
SALT LAKE CITY MOCLDY    47  34  60 S16G24    30.00S
LOS ANGELES CA CLOUDY    53  53 100 E9        30.22R FOG
BOISE ID       CLOUDY    48  35  60 SE17      29.71F
SEATTLE WA     LGT RAIN  42  40  92 N9        29.49F
$$

*** WEATHER ACROSS MANITOBA...SASKATCHEWAN AND ONTARIO ***
                ***ONTARIO***

CITY           SKY/WX    TMP DP  RH WIND       PRES   REMARKS
GERALDTON      PTSUNNY   32  25  74 SE9       30.12F WCI  24
THUNDER BAY    CLOUDY    36  32  87 E12       30.05F
SIOUX LOOKOUT  LGT RAIN  37  32  81 S10G17    29.81R
TORONTO        MOSUNNY   36  23  60 NE7       30.36R
BIG TROUT LK   FLURRIES  28  25  86 SE13G18   29.90F WCI  18
PICKLE LAKE    LGT RAIN  36  28  75 SE15G23   29.85F
DRYDEN         CLOUDY    39  36  87 SE15      29.75F
KENORA         LGT RAIN  41  39  93 S18G25    29.67F
$$
                *** MANITOBA***

CITY           SKY/WX    TMP DP  RH WIND       PRES   REMARKS
BRANDON        CLOUDY    34  32  93 W12       29.64R
DAUPHIN        CLOUDY    32  30  93 W14       29.62R WCI  22
ISLAND LAKE    FRZ RAIN  32  30  93 E7        29.68F
PILOT MOUND      N/A     32  32 100 NW8         N/A  WCI  25
THE PAS        CLOUDY    25  21  86 E3        29.64S
THOMPSON       LGT SNOW  23  19  86 NE10G18   29.72F WCI  12
WINNIPEG       DRZL/FOG  34  34 100 W10       29.59F VSB 1/2
LYNN LAKE      SNOW      19  18  93 E12G18    29.67F VSB 1/2 WCI   7
CHURCHILL      CLOUDY    12  10  92 E12       30.06F WCI  -2
GILLAM         FLURRIES  21  18  86 E12G18    29.87F WCI   9
$$
                ***SASKATCHEWAN***

CITY           SKY/WX    TMP DP  RH WIND       PRES   REMARKS
ESTEVAN        CLOUDY    30  30 100 SW5       29.70R FOG
KINDERSLEY     CLOUDY    32  30  93 W8        29.62R WCI  25
LLOYDMINSTER   CLOUDY    32  32 100 W12       29.57R FOG     WCI  23
PRINCE ALBERT  FOG       30  30 100 CALM      29.58S VSB 1/4
REGINA         MOCLDY    28  28 100 SE3       29.65S FOG
YORKTON        CLOUDY    30  30 100 SW6       29.63S WC



USA.gov is the U.S. government's official web portal to all federal, state and local government web resources and services.